Location: Hurstbourne Priors
(51.2000°N, 1.3667°W)
Time: 19:46:28
(UTC+00:00)

Transit 4A - Pass Details

Date: 25 April 2021
Orbit: 870 x 974 km, 66.8° (Epoch: 09 May)

Event Time Altitude Azimuth Distance (km) Brightness Sun altitude
Rises 23:53:20 0° 237° (WSW) 3,613 - -25.6°
Reaches altitude 10° 23:56:00 10° 243° (WSW) 2,656 - -25.6°
Exits shadow 23:57:55 20° 251° (WSW) 2,007 9.5 -25.6°
Maximum altitude 00:01:58 48° 318° (NW) 1,188 8.7 -25.6°
Drops below altitude 10° 00:07:48 10° 33° (NNE) 2,597 11.0 -25.6°
Sets 00:10:23 0° 39° (NE) 3,525 11.7 -25.6°
